Regional Weather Roundup
Issued by NWS Sterling, VA

Home | Current Version | Previous Version | Text Only | Print | Product List | Glossary Off
Versions: 1 2 3 4 5 6 7 8 9 10 11 12 13 14 15 16 17 18 19 20 21 22 23 24 25 26

000
ASUS41 KLWX 261611
RWRLWX

REGIONAL WEATHER ROUNDUP
NATIONAL WEATHER SERVICE BALTIMORE MD/WASHINGTON DC
1200 PM EDT MON SEP 26 2016

Note: "FAIR" indicates few or no clouds below 12,000 feet
with no significant weather and/or obstructions to visibility.
 TC=TEMPERATURE CELSIUS

 * =Non NWS site. Station does not report precipitation (e.g. rain,
    snow, etc.), thunder, or fog.

DCZ001-MDZ009-015-VAZ040>042-051-053>054-261700-
WASHINGTON METRO

CITY           SKY/WX    TMP DP  RH WIND       PRES   REMARKS
WASHINGTON NAT CLOUDY    70  60  70 S14       30.14S
DULLES         CLOUDY    66  57  72 S16G25    30.12F
ANDREWS AFB    CLOUDY    67  60  79 S8        30.13S
FT BELVOIR     CLOUDY    67  58  74 S6        30.13F
QUANTICO       CLOUDY    68  59  73 S10       30.14F
COLLEGE PARK*  CLOUDY    68  57  68 S8        30.13S
LEESBURG*      CLOUDY    68  61  77 S16G23    30.12F
MANASSAS*      CLOUDY    66  61  82 S12G17    30.12F
GAITHERSBURG*  CLOUDY    66  55  68 S9G20     30.16F

$$

MDZ006>007-011-014-261700-
BALTIMORE METRO

CITY           SKY/WX    TMP DP  RH WIND       PRES   REMARKS
BWI AIRPORT    DRIZZLE   67  60  78 SE7       30.13F
MD SCIENCE CTR   N/A     68  57  68 MISG      30.14S
MARTIN STATE   CLOUDY    68  61  77 S13       30.15F
ANNAPOLIS      CLOUDY    69  57  65 S10       30.14S
FORT MEADE*    CLOUDY    64  59  82 SE3       30.16S

$$

MDZ012-015-019>023-261700-
MARYLAND EASTERN SHORE

CITY           SKY/WX    TMP DP  RH WIND       PRES   REMARKS
OCEAN CITY     SUNNY     73  49  42 SE9       30.16F
SALISBURY      SUNNY     72  50  45 SE13      30.15F
BAY BRIDGE AP* CLOUDY    68  55  64 MISG      30.15S
CAMBRIDGE*     PTSUNNY   70  50  49 SE9       30.15S
EASTON*        CLOUDY    72  50  46 S10       30.18F

$$

MDZ017>025-261700-
SOUTHERN MARYLAND

CITY           SKY/WX    TMP DP  RH WIND       PRES   REMARKS
PATUXENT RIVER CLOUDY    70  54  56 S8        30.15S
ST INIGOES     CLOUDY    71  56  58 SE9       30.14F
LEONARDTOWN*   CLOUDY    68  55  64 SE6       30.16S

$$

MDZ003>005-261700-
NORTH CENTRAL MARYLAND

CITY           SKY/WX    TMP DP  RH WIND       PRES   REMARKS
FREDERICK*     CLOUDY    66  63  88 S5        30.14F
HAGERSTOWN APT LGT RAIN  65  57  75 S10       30.09S

$$

MDZ501>502-261700-
WESTERN MARYLAND

CITY           SKY/WX    TMP DP  RH WIND       PRES   REMARKS
OAKLAND*       MOSUNNY   70  59  68 SW7       30.08F
CUMBERLAND*    CLOUDY    68  57  68 N3        30.09F

$$

VAZ025>031-261700-
SHENANDOAH VALLEY

CITY           SKY/WX    TMP DP  RH WIND       PRES   REMARKS
WINCHESTER*    CLOUDY    68  61  77 S12       30.08S
FRONT ROYAL*   CLOUDY    70  63  78 S6        30.07F
LURAY*         CLOUDY    72  63  73 SW9       30.07F
NEW MARKET*    CLOUDY   N/A N/A N/A SW9       30.06F
STAUNTON*      CLOUDY    67  62  81 S9        30.12F
WAYNESBORO*    CLOUDY    67  61  79 S5G16     30.12S

$$

WVZ021-048>050-054>055-261700-
EASTERN WEST VIRGINIA PANHANDLE

CITY           SKY/WX    TMP DP  RH WIND       PRES   REMARKS
MARTINSBURG    CLOUDY    67  60  78 SE12      30.08S
PETERSBURG*    MOSUNNY   79  60  52 CALM      30.01F

$$

VAZ036>039-050-261700-
CENTRAL FOOTHILLS

CITY           SKY/WX    TMP DP  RH WIND       PRES   REMARKS
CHARLOTTESVILL CLOUDY    68  61  78 S10       30.12F
CULPEPER*      CLOUDY    67  61  80 S10G16    30.13F
ORANGE*          N/A     66  63  88 S8        30.14F
GORDONSVILLE*  NOT AVBL
WARRENTON*     CLOUDY    68  56  65 S12       30.12F

$$

VAZ055>057-261700-
NORTH AND CENTRAL PIEDMONT

CITY           SKY/WX    TMP DP  RH WIND       PRES   REMARKS
FREDERICKSBRG* CLOUDY    68  60  75 S6        30.13S
STAFFORD*      CLOUDY    67  60  80 S5        30.17F

$$

NCZ024-NYZ072-PAZ021-071-VAZ022-071-261700-
OTHER REGIONAL OBSERVATIONS

CITY           SKY/WX    TMP DP  RH WIND       PRES   REMARKS
NEW YORK CITY  MOSUNNY   70  49  47 VRB5      30.19F
PHILADELPHIA   PTSUNNY   71  52  50 SE12      30.15F
PITTSBURGH     PTSUNNY   77  62  59 S9        29.95F
ROANOKE        CLOUDY    67  64  90 SE8       30.14F
RICHMOND       CLOUDY    69  57  65 S13       30.13F
RALEIGH        CLOUDY    68  63  84 SE5       30.15F

$$

ANZ530>537-261700-
MARINE OBSERVATIONS

STATION/POSITION TIME  TEMP    WIND        PRES
                       AIR SEA DIR/SP/G
                 (UTC) (F)     (DEG/KT/KT) (MB)
THOMAS PT LIGHT  1600   68 74  150/ 18/ 19 1021.6F
BALT KEY BRIDGE  1548   67     150/ 13/ 17 1020.3F
COVE POINT       1548   68     180/ 16/ 19 1021.4F
LEWISETTA        1548   70 74  180/  9/ 11 1020.5F
SOLOMONS ISLAND  1548   70 75  150/ 12/ 16   N/A
PINEY POINT      1548          170/ 11/ 13   N/A

$$





USA.gov is the U.S. government's official web portal to all federal, state and local government web resources and services.